Regional Weather Roundup
Issued by NWS

Home | Current Version | Previous Version | Graphics & Text | Print | Product List | Glossary On
Versions: 1 2 3 4 5 6 7 8 9 10 11 12 13 14 15 16 17 18 19 20 21 22 23 24 25 26 27 28 29 30 31 32 33 34 35 36 37 38 39 40 41 42 43 44 45 46 47 48 49 50
000
ASUS43 KDMX 260501
RWRIA

WEATHER ROUNDUP FOR IOWA
NATIONAL WEATHER SERVICE DES MOINES IA
1200 AM CDT SUN MAR 26 2017

NOTE: "FAIR" INDICATES FEW OR NO CLOUDS BELOW 12,000 FEET WITH NO
SIGNIFICANT WEATHER AND/OR OBSTRUCTIONS TO VISIBILITY.

* - THESE STATIONS ARE NOT NWS STATIONS...THUS NOT UNDER NWS
QUALITY CONTROL.  THEY ALSO DO NOT REPORT WEATHER SUCH
AS PRECIPITATION OR FOG.

IAZ001>003-012>014-020>022-031>034-043>046-260600-
   NORTHWEST IOWA

CITY           SKY/WX    TMP DP  RH WIND       PRES   REMARKS
CARROLL *      CLOUDY    39  39 100 NE7       29.92F FOG     WCI  34
CHEROKEE *     CLOUDY    38  38 100 NE6       29.94F WCI  33
LE MARS *      CLOUDY    39  37  93 NE9       29.96S WCI  33
ORANGE CITY *  CLOUDY    37  37 100 E6        29.95S FOG     WCI  33
SHELDON *      CLOUDY    37  37 100 E8        29.94S FOG     WCI  31
SIOUX CITY     CLOUDY    39  38  96 E7        29.95F WCI  34
SPENCER        CLOUDY    37  37 100 NE10      29.95F FOG     WCI  30
STORM LAKE *   FOG       37  37 100 NE10      29.94F VSB 1/2 WCI  30
$$

IAZ055>058-069>071-079>083-090>094-260600-
   SOUTHWEST IOWA

CITY           SKY/WX    TMP DP  RH WIND       PRES   REMARKS
ATLANTIC *     CLOUDY    41  41 100 NE8       29.90F FOG
AUDUBON *      CLOUDY    39  37  93 N6        29.91F FOG     WCI  35
CLARINDA *     CLOUDY    43  43 100 NE9       29.92F
COUNCIL BLFS * CLOUDY    39  39 100 N8        29.90F WCI  34
CRESTON *      CLOUDY    41  41 100 N9        29.90S FOG
HARLAN  *      CLOUDY    39  39 100 NE8       29.94F WCI  34
LAMONI         CLOUDY    42  41  96 N9        29.87F FOG
RED OAK *      CLOUDY    41  41 100 NE7       29.90F FOG
SHENANDOAH *   CLOUDY    41  41 100 NE7       29.91F
$$

IAZ047>049-059>061-072>074-084-260600-
   CENTRAL IOWA

CITY           SKY/WX    TMP DP  RH WIND       PRES   REMARKS
AMES           CLOUDY    40  40 100 NE7       29.91F FOG
ANKENY *       CLOUDY    41  41 100 NE7       29.91F FOG
BOONE *        FOG       39  39 100 NE8       29.90F VSB 1   WCI  34
CHARITON *     MIX PCPN  43  43 100 N12       29.86F
DES MOINES     DRIZZLE   42  41  96 N7        29.89F FOG
GRINNELL*      FOG       42  41  97 N9        29.88F VSB 1/2
MARSHALLTOWN   CLOUDY    40  40 100 NE8       29.89F FOG     WCI  34
NEWTON *       FOG       41  41 100 N9        29.87F VSB 1/2
PELLA *        FOG       43  42  99 N8        29.88F VSB 1/2
PERRY *        CLOUDY    41  40  97 N6        29.91F FOG
$$

IAZ004>006-015-016-023>025-035-036-260600-
   NORTH CENTRAL IOWA

CITY           SKY/WX    TMP DP  RH WIND       PRES   REMARKS
ALGONA *       CLOUDY    37  37 100 NE9       29.95F FOG     WCI  31
CLARION *      CLOUDY    37  37 100 NE9G16    29.93F FOG     WCI  31
ESTHERVILLE    CLOUDY    36  36 100 NE8       29.96F FOG     WCI  30
FORT DODGE *   CLOUDY    37  36  93 NE6       29.93F WCI  33
MASON CITY     CLOUDY    37  36  96 E9        29.95F WCI  30
FOREST CITY *  CLOUDY    36  36 100 NE7       29.94F FOG     WCI  30
WEBSTER CITY * CLOUDY    39  37  93 NE7       29.90F FOG     WCI  34
IOWA FALLS *   FOG       39  38  97 NE10      29.92F VSB 1   WCI  32
$$

IAZ007>011-017>019-026>030-037>042-050>054-066-260600-
   NORTHEAST IOWA

CITY           SKY/WX    TMP DP  RH WIND       PRES   REMARKS
CEDAR RAPIDS   CLOUDY    42  42 100 NE14      29.85F FOG
CHARLES CITY * FOG       37  37 100 E10G16    29.94S VSB 1/2 WCI  30
CLINTON *      CLOUDY    43  43 100 E17       29.88F FOG
DECORAH *      CLOUDY    37  37 100 E10       29.94F FOG     WCI  30
DUBUQUE        CLOUDY    40  40 100 NE15      29.90F FOG     WCI  32
MONTICELLO *   CLOUDY    41  41 100 NE12      29.89F
OELWEIN *      FOG       39  39 100 NE15G22   29.90F VSB 1/2 WCI  31
WATERLOO       LGT RAIN  40  38  93 NE9       29.91F FOG     WCI  34
$$

IAZ064-065-067-068-078-260600-
   EAST CENTRAL IOWA

CITY           SKY/WX    TMP DP  RH WIND       PRES   REMARKS
DAVENPORT      CLOUDY    45  44  97 NE14      29.87F FOG
IOWA CITY      CLOUDY    45  43  93 NE8       29.87F
MUSCATINE *    CLOUDY    46  46 100 NE9       29.86R FOG
QUAD CITIES    CLOUDY    47  45  93 E13       29.86F FOG
$$

IAZ062-063-075>077-085>089-095>099-260600-
   SOUTHEAST IOWA

CITY           SKY/WX    TMP DP  RH WIND       PRES   REMARKS
BURLINGTON     CLOUDY    58  57  97 E8        29.80F
FAIRFIELD *    CLOUDY    48  48 100 NE13      29.82S FOG
FORT MADISON * CLOUDY    57  57 100 E6        29.81S
KEOKUK *       CLOUDY    57  57 100 E8        29.78F
OSKALOOSA *    LGT RAIN  45  44  99 N8        29.85F VSB 1/2
OTTUMWA        FOG       47  47 100 N9        29.84F VSB 1/4
WASHINGTON *   CLOUDY    46  46 100 NE14      29.85S FOG
$$

ABBREVIATIONS USED IN REMARKS
   TC - TEMPERATURES IN CELSIUS
  WCI - WIND CHILL INDEX
   HX - HEAT INDEX
  VSB - VISIBILITY
$$





USA.gov is the U.S. government's official web portal to all federal, state and local government web resources and services.